Regional Weather Roundup
Issued by NWS Little Rock, AR

Home | Current Version | Previous Version | Text Only | Print | Product List | Glossary Off
Versions: 1 2 3 4 5 6 7 8 9 10 11 12 13 14 15 16 17 18 19 20 21 22 23 24 25 26 27 28 29 30 31 32 33 34 35 36 37 38 39 40 41 42 43 44 45 46 47 48 49 50

000
ASUS44 KLZK 240305
RWRLZK

WEATHER ROUNDUP FOR ARKANSAS
NATIONAL WEATHER SERVICE LITTLE ROCK AR
900 PM CST THU NOV 23 2017

NOTE: "FAIR" INDICATES FEW OR NO CLOUDS BELOW 12,000 FEET WITH NO
SIGNIFICANT WEATHER AND/OR OBSTRUCTIONS TO VISIBILITY.

ARZ001-003-010-029-240400-
NORTHWEST ARKANSAS

CITY           SKY/WX    TMP DP  RH WIND       PRES   REMARKS
FAYETTEVILLE   CLEAR     39  32  76 CALM      30.02S
FORT SMITH     CLEAR     45  34  65 E3        30.02S
HARRISON       CLEAR     48  29  47 CALM      30.01R
BENTONVILLE    CLEAR     48  29  47 S3        30.03R
ROGERS         CLEAR     49  30  48 S5        30.01S
SILOAM SPGS    CLEAR     48  29  47 SW5       30.02R
HIGHFILL       CLEAR     50  29  44 SW7       30.01S
SPRINGDALE     CLEAR     46  30  53 CALM      30.03S
$$

ARZ004-005-016-240400-
NORTH CENTRAL ARKANSAS

CITY           SKY/WX    TMP DP  RH WIND       PRES   REMARKS
BATESVILLE     CLEAR     49  27  42 S5        30.03S
FLIPPIN        CLEAR     43  30  60 CALM      30.00S
MTN HOME       CLEAR     50  28  42 SW3       29.99S
$$

ARZ040-041-240400-
WEST CENTRAL ARKANSAS

CITY           SKY/WX    TMP DP  RH WIND       PRES   REMARKS
MENA           CLEAR     50  32  50 W3        30.05F
MOUNT IDA      CLEAR     45  31  58 CALM      30.02S
$$

ARZ009-017-025-026-028-240400-
NORTHEAST ARKANSAS

CITY           SKY/WX    TMP DP  RH WIND       PRES   REMARKS
CORNING        FAIR      45  30  57 S8        30.02S
JONESBORO      CLEAR     42  29  59 CALM      30.03F
NEWPORT        CLEAR     39  30  70 S9        30.04S
WALNUT RIDGE     N/A     40  31  70 S7        30.02F
BLYTHEVILLE    CLEAR     42  30  62 S5        30.05S
$$

ARZ022-023-033-042-044-240400-
CENTRAL ARKANSAS

CITY           SKY/WX    TMP DP  RH WIND       PRES   REMARKS
LITTLE ROCK    CLEAR     43  29  57 CALM      30.05S
N LITTLE ROCK    N/A     50  27  42 SW3       30.08R
JACKSONVILLE   PTCLDY    37  29  72 CALM      30.04R
SEARCY         CLEAR     37  32  82 CALM      30.05S
HOT SPRINGS    CLEAR     45  31  58 CALM      30.06R
RUSSELLVILLE   CLEAR     39  33  79 CALM      30.03S
CLINTON        FAIR      36  32  87 CALM      30.04S
$$

ARZ036-240400-
EAST ARKANSAS

CITY           SKY/WX    TMP DP  RH WIND       PRES   REMARKS
WEST MEMPHIS   CLEAR     39  30  70 S3        30.05F
$$

ARZ050-053-066-070-073-240400-
SOUTHWEST ARKANSAS

CITY           SKY/WX    TMP DP  RH WIND       PRES   REMARKS
ARKADELPHIA    FAIR      36  31  82 CALM      30.08R
CAMDEN         CLEAR     37  30  75 CALM      30.06F
TEXARKANA      CLEAR     46  33  60 CALM      30.08R
EL DORADO      CLEAR     40  36  86 CALM      30.07F
DE QUEEN       CLEAR     37  35  92 CALM      30.05F
$$

ARZ056-057-069-240400-
SOUTHEAST ARKANSAS

CITY           SKY/WX    TMP DP  RH WIND       PRES   REMARKS
PINE BLUFF     CLEAR     41  29  62 S5        30.06F
STUTTGART      LGT RAIN  44  31  60 S6        30.06S
MONTICELLO     CLEAR     39  31  72 CALM      30.07F

$$





USA.gov is the U.S. government's official web portal to all federal, state and local government web resources and services.